When you browse on this site, cookies collect data to enhance your experience and personalize the content and advertising you see.
Visit our Privacy Policy to learn more. By continuing to use the site, you agree to this use of cookies and data.
  • In Romania
  • List of Countries
  • For 7 days
  • Water Temperature
  • Weather Map
  • Weather Widgets
  • user-avatar
    Login

    Hourly Weather Kingston upon Thames

    Today, 27 May, Wednesday

    Time Temperature Precipitation Wind Pressure Humidity
    00:00 +18°C° 0 mm 1 mps 774 mmHg 82%
    01:00 +16°C° 0 mm 1 mps 774 mmHg 83%
    02:00 +15°C° 0 mm 1 mps 774 mmHg 83%
    03:00 +15°C° 0 mm 1 mps 774 mmHg 83%
    04:00 +15°C° 0 mm 1 mps 774 mmHg 80%
    05:00 +16°C° 0 mm 1 mps 774 mmHg 77%
    06:00 +16°C° 0 mm 1 mps 774 mmHg 74%
    07:00 +18°C° 0 mm 1 mps 775 mmHg 71%
    08:00 +19°C° 0 mm 1 mps 775 mmHg 67%
    09:00 +20°C° 0 mm 1 mps 775 mmHg 64%
    10:00 +22°C° 0 mm 1 mps 775 mmHg 62%
    11:00 +23°C° 0 mm 1 mps 775 mmHg 60%
    12:00 +25°C° 0 mm 1 mps 774 mmHg 58%
    13:00 +24°C° 0.1 mm 1 mps 774 mmHg 59%
    14:00 +24°C° 0.1 mm 2 mps 774 mmHg 61%
    15:00 +24°C° 0.1 mm 3 mps 774 mmHg 62%
    16:00 +22°C° 0.1 mm 3 mps 774 mmHg 65%
    17:00 +21°C° 0.1 mm 3 mps 774 mmHg 68%
    18:00 +20°C° 0.1 mm 3 mps 774 mmHg 71%
    19:00 +19°C° 0 mm 3 mps 774 mmHg 72%
    20:00 +18°C° 0 mm 3 mps 775 mmHg 73%
    21:00 +16°C° 0 mm 3 mps 775 mmHg 74%
    22:00 +14°C° 0 mm 3 mps 775 mmHg 75%
    23:00 +13°C° 0 mm 3 mps 775 mmHg 76%

    Tomorrow, 28 May, Thursday

    Time Temperature Precipitation Wind Pressure Humidity
    00:00 +13°C° 0 mm 2 mps 775 mmHg 78%
    01:00 +13°C° 0 mm 2 mps 775 mmHg 80%
    02:00 +12°C° 0 mm 2 mps 775 mmHg 81%
    03:00 +12°C° 0 mm 2 mps 775 mmHg 83%
    04:00 +11°C° 0 mm 3 mps 774 mmHg 81%
    05:00 +12°C° 0 mm 3 mps 774 mmHg 78%
    06:00 +12°C° 0 mm 3 mps 774 mmHg 75%
    07:00 +14°C° 0 mm 3 mps 774 mmHg 68%
    08:00 +16°C° 0 mm 3 mps 774 mmHg 61%
    09:00 +17°C° 0 mm 4 mps 774 mmHg 54%
    10:00 +18°C° 0 mm 4 mps 774 mmHg 51%
    11:00 +19°C° 0 mm 4 mps 774 mmHg 47%
    12:00 +20°C° 0 mm 4 mps 773 mmHg 44%
    13:00 +20°C° 0 mm 4 mps 773 mmHg 44%
    14:00 +20°C° 0 mm 4 mps 773 mmHg 44%
    15:00 +20°C° 0 mm 5 mps 772 mmHg 45%
    16:00 +19°C° 0 mm 4 mps 772 mmHg 48%
    17:00 +18°C° 0 mm 4 mps 772 mmHg 51%
    18:00 +17°C° 0 mm 4 mps 771 mmHg 54%
    19:00 +15°C° 0 mm 4 mps 771 mmHg 57%
    20:00 +13°C° 0 mm 3 mps 771 mmHg 61%
    21:00 +12°C° 0 mm 3 mps 771 mmHg 65%
    22:00 +11°C° 0 mm 3 mps 771 mmHg 67%
    23:00 +11°C° 0 mm 3 mps 771 mmHg 68%

    Day after tomorrow, 29 May, Friday

    Time Temperature Precipitation Wind Pressure Humidity
    00:00 +10°C° 0 mm 2 mps 771 mmHg 70%
    01:00 +10°C° 0 mm 2 mps 771 mmHg 71%
    02:00 +10°C° 0 mm 2 mps 771 mmHg 72%
    03:00 +10°C° 0 mm 2 mps 770 mmHg 73%
    04:00 +12°C° 0 mm 2 mps 770 mmHg 73%
    05:00 +11°C° 0 mm 3 mps 770 mmHg 73%
    06:00 +12°C° 0 mm 3 mps 770 mmHg 73%
    07:00 +14°C° 0 mm 3 mps 770 mmHg 67%
    08:00 +15°C° 0 mm 4 mps 770 mmHg 61%
    09:00 +18°C° 0 mm 4 mps 770 mmHg 54%
    10:00 +18°C° 0 mm 4 mps 769 mmHg 51%
    11:00 +19°C° 0 mm 4 mps 769 mmHg 48%
    12:00 +20°C° 0 mm 5 mps 769 mmHg 46%
    13:00 +20°C° 0 mm 5 mps 768 mmHg 44%
    14:00 +20°C° 0 mm 4 mps 768 mmHg 42%
    15:00 +20°C° 0 mm 4 mps 768 mmHg 41%
    16:00 +19°C° 0 mm 4 mps 767 mmHg 43%
    17:00 +18°C° 0 mm 4 mps 767 mmHg 46%
    18:00 +17°C° 0 mm 4 mps 767 mmHg 49%
    19:00 +14°C° 0 mm 4 mps 767 mmHg 53%
    20:00 +13°C° 0 mm 3 mps 767 mmHg 57%
    21:00 +11°C° 0 mm 3 mps 767 mmHg 61%
    22:00 +11°C° 0 mm 3 mps 767 mmHg 66%
    23:00 +10°C° 0 mm 3 mps 767 mmHg 71%

    30 May, Saturday

    Time Temperature Precipitation Wind Pressure Humidity
    00:00 +10°C° 0 mm 3 mps 767 mmHg 76%
    01:00 +10°C° 0 mm 2 mps 767 mmHg 79%
    02:00 +9°C° 0 mm 2 mps 767 mmHg 81%
    03:00 +9°C° 0 mm 2 mps 767 mmHg 84%
    04:00 +10°C° 0 mm 2 mps 767 mmHg 83%
    05:00 +12°C° 0 mm 2 mps 767 mmHg 82%
    06:00 +13°C° 0 mm 2 mps 767 mmHg 81%
    07:00 +14°C° 0 mm 3 mps 767 mmHg 74%
    08:00 +17°C° 0 mm 3 mps 767 mmHg 67%
    09:00 +19°C° 0 mm 3 mps 767 mmHg 59%
    10:00 +20°C° 0 mm 4 mps 766 mmHg 55%
    11:00 +21°C° 0 mm 4 mps 766 mmHg 51%
    12:00 +22°C° 0 mm 4 mps 766 mmHg 46%
    13:00 +22°C° 0 mm 4 mps 766 mmHg 46%
    14:00 +22°C° 0 mm 4 mps 765 mmHg 46%
    15:00 +22°C° 0 mm 4 mps 765 mmHg 46%
    16:00 +21°C° 0 mm 4 mps 765 mmHg 50%
    17:00 +20°C° 0 mm 4 mps 765 mmHg 54%
    18:00 +20°C° 0 mm 3 mps 765 mmHg 57%
    19:00 +18°C° 0 mm 3 mps 765 mmHg 61%
    20:00 +16°C° 0 mm 3 mps 765 mmHg 65%
    21:00 +13°C° 0 mm 3 mps 766 mmHg 68%
    22:00 +12°C° 0 mm 3 mps 766 mmHg 72%
    23:00 +13°C° 0 mm 2 mps 766 mmHg 77%

    31 May, Sunday

    Time Temperature Precipitation Wind Pressure Humidity
    00:00 +12°C° 0 mm 2 mps 766 mmHg 81%
    01:00 +12°C° 0 mm 2 mps 766 mmHg 82%
    02:00 +12°C° 0 mm 2 mps 766 mmHg 84%
    03:00 +10°C° 0 mm 2 mps 765 mmHg 86%
    04:00 +12°C° 0 mm 2 mps 765 mmHg 84%
    05:00 +13°C° 0 mm 2 mps 766 mmHg 83%
    06:00 +13°C° 0 mm 3 mps 766 mmHg 81%
    07:00 +16°C° 0 mm 3 mps 766 mmHg 74%
    08:00 +18°C° 0 mm 3 mps 766 mmHg 66%
    09:00 +20°C° 0 mm 3 mps 766 mmHg 59%
    10:00 +21°C° 0 mm 3 mps 766 mmHg 54%
    11:00 +22°C° 0 mm 3 mps 765 mmHg 49%
    12:00 +24°C° 0 mm 3 mps 765 mmHg 44%
    13:00 +22°C° 0 mm 4 mps 765 mmHg 45%
    14:00 +22°C° 0 mm 4 mps 765 mmHg 46%
    15:00 +22°C° 0 mm 4 mps 765 mmHg 47%
    16:00 +21°C° 0 mm 4 mps 765 mmHg 51%
    17:00 +21°C° 0 mm 4 mps 764 mmHg 54%
    18:00 +20°C° 0 mm 4 mps 764 mmHg 58%
    19:00 +18°C° 0 mm 3 mps 764 mmHg 62%
    20:00 +16°C° 0 mm 3 mps 764 mmHg 67%
    21:00 +13°C° 0 mm 3 mps 764 mmHg 71%
    22:00 +13°C° 0 mm 3 mps 764 mmHg 74%
    23:00 +13°C° 0 mm 2 mps 764 mmHg 77%

    1 June, Monday

    Time Temperature Precipitation Wind Pressure Humidity
    00:00 +12°C° 0 mm 2 mps 764 mmHg 80%
    01:00 +12°C° 0 mm 2 mps 764 mmHg 82%
    02:00 +12°C° 0 mm 2 mps 764 mmHg 83%
    03:00 +12°C° 0 mm 2 mps 763 mmHg 84%
    04:00 +12°C° 0 mm 2 mps 763 mmHg 82%
    05:00 +13°C° 0 mm 2 mps 763 mmHg 80%
    06:00 +14°C° 0 mm 2 mps 763 mmHg 78%
    07:00 +16°C° 0 mm 2 mps 763 mmHg 71%
    08:00 +18°C° 0 mm 3 mps 763 mmHg 64%
    09:00 +20°C° 0 mm 3 mps 763 mmHg 57%
    10:00 +21°C° 0 mm 4 mps 762 mmHg 54%
    11:00 +22°C° 0 mm 4 mps 762 mmHg 51%
    12:00 +23°C° 0 mm 4 mps 762 mmHg 47%
    13:00 +23°C° 0 mm 4 mps 761 mmHg 49%
    14:00 +22°C° 0 mm 4 mps 761 mmHg 50%
    15:00 +22°C° 0 mm 4 mps 761 mmHg 51%
    16:00 +22°C° 0 mm 4 mps 760 mmHg 54%
    17:00 +21°C° 0 mm 4 mps 760 mmHg 58%
    18:00 +20°C° 0 mm 4 mps 760 mmHg 61%
    19:00 +18°C° 0 mm 4 mps 760 mmHg 66%
    20:00 +17°C° 0 mm 4 mps 760 mmHg 70%
    21:00 +14°C° 0 mm 3 mps 760 mmHg 75%
    22:00 +13°C° 0 mm 3 mps 760 mmHg 76%
    23:00 +13°C° 0 mm 3 mps 760 mmHg 78%
    Show more